TOM888 LFBZ-ENTO

Flight info

Callsign TOM888
Flight time 2h 42m
Altitude 36000
Route VAVIX DCT TUPAR UN861 DIKRO UM184 PILIP UN6 TELTU UM185 DIGSU N866 BANEM M604 GIVPO DCT TOPPA DCT SUTEB DCT OKMAM P850 DANKO M604 SVA M609 ULMUG
Aircraft B738/M-SDE2E3FGHIRWXY/LB1

Departure

Time 2026-04-21 13:22
Airport Biarritz Pays Basque airport (LFBZ)

Arrival

Time 2026-04-21 16:04
Airport Sandefjord Airport, Torp (ENTO)
Time Latitude Longitude Altitude Speed Heading
2026-04-21 12:50 43.47113 -1.53115 244 ft 0 kts 20°
2026-04-21 13:13 43.47111 -1.53116 271 ft 3 kts 17°
2026-04-21 13:13 43.47098 -1.53115 244 ft 3 kts 357°
2026-04-21 13:14 43.47075 -1.53112 244 ft 4 kts 339°
2026-04-21 13:14 43.47056 -1.53093 244 ft 4 kts 287°
2026-04-21 13:14 43.47054 -1.53078 244 ft 1 kts 264°
2026-04-21 13:18 43.47052 -1.53113 244 ft 8 kts 264°
2026-04-21 13:19 43.47006 -1.53197 244 ft 13 kts 203°
2026-04-21 13:19 43.46941 -1.53189 244 ft 5 kts 154°
2026-04-21 13:19 43.46905 -1.53165 243 ft 6 kts 154°
2026-04-21 13:19 43.46859 -1.53154 244 ft 9 kts 192°
2026-04-21 13:20 43.46825 -1.53272 246 ft 20 kts 268°
2026-04-21 13:20 43.46822 -1.53510 246 ft 27 kts 269°
2026-04-21 13:20 43.46858 -1.53666 243 ft 9 kts 298°
2026-04-21 13:20 43.46834 -1.53713 244 ft 7 kts 172°
2026-04-21 13:21 43.46820 -1.53655 245 ft 2 kts 89°
2026-04-21 13:21 43.46820 -1.53619 245 ft 8 kts 89°
2026-04-21 13:21 43.46826 -1.53170 246 ft 92 kts 89°
2026-04-21 13:21 43.46843 -1.51914 251 ft 167 kts 89°
2026-04-21 13:22 43.46861 -1.50263 1114 ft 169 kts 89°
2026-04-21 13:22 43.46872 -1.48661 2338 ft 167 kts 89°
2026-04-21 13:22 43.46887 -1.46925 3051 ft 196 kts 91°
2026-04-21 13:22 43.47191 -1.44952 3378 ft 234 kts 62°
2026-04-21 13:23 43.48486 -1.43463 3993 ft 257 kts 21°
2026-04-21 13:23 43.50351 -1.43148 4634 ft 282 kts 359°
2026-04-21 13:23 43.52249 -1.42556 5647 ft 289 kts 31°
2026-04-21 13:23 43.53828 -1.40849 6816 ft 290 kts 42°
2026-04-21 13:24 43.55378 -1.39026 7870 ft 296 kts 40°
2026-04-21 13:24 43.56989 -1.37228 8964 ft 299 kts 39°
2026-04-21 13:24 43.58652 -1.35467 10054 ft 303 kts 37°
2026-04-21 13:24 43.60397 -1.33681 10669 ft 325 kts 36°
2026-04-21 13:25 43.62318 -1.31765 10914 ft 356 kts 36°
2026-04-21 13:25 43.64413 -1.29709 11248 ft 381 kts 35°
2026-04-21 13:25 43.66574 -1.27606 12068 ft 385 kts 35°
2026-04-21 13:25 43.68758 -1.25485 13130 ft 387 kts 34°
2026-04-21 13:26 43.70989 -1.23322 13877 ft 395 kts 34°
2026-04-21 13:26 43.73252 -1.21125 14668 ft 400 kts 34°
2026-04-21 13:26 43.75547 -1.18899 15490 ft 404 kts 34°
2026-04-21 13:26 43.77856 -1.16709 16430 ft 405 kts 33°
2026-04-21 13:27 43.80208 -1.14506 17138 ft 411 kts 32°
2026-04-21 13:27 43.82586 -1.12286 17994 ft 413 kts 32°
2026-04-21 13:27 43.84979 -1.10047 18694 ft 417 kts 32°
2026-04-21 13:27 43.87362 -1.07813 19332 ft 422 kts 32°
2026-04-21 13:28 43.89803 -1.05518 19988 ft 426 kts 32°
2026-04-21 13:28 43.92266 -1.03197 20641 ft 430 kts 32°
2026-04-21 13:28 43.94750 -1.00852 21278 ft 434 kts 32°
2026-04-21 13:28 43.97256 -0.98483 21894 ft 438 kts 32°
2026-04-21 13:29 43.99785 -0.96089 22488 ft 442 kts 32°
2026-04-21 13:29 44.02335 -0.93674 23064 ft 446 kts 32°
2026-04-21 13:29 44.04912 -0.91229 23597 ft 451 kts 32°
2026-04-21 13:29 44.07514 -0.88758 24075 ft 455 kts 32°
2026-04-21 13:30 44.10097 -0.86303 24582 ft 457 kts 32°
2026-04-21 13:30 44.12727 -0.83800 25085 ft 459 kts 32°
2026-04-21 13:30 44.15371 -0.81281 25561 ft 462 kts 32°
2026-04-21 13:30 44.18030 -0.78744 26005 ft 465 kts 32°
2026-04-21 13:31 44.20706 -0.76190 26454 ft 468 kts 32°
2026-04-21 13:31 44.23397 -0.73618 26937 ft 470 kts 31°
2026-04-21 13:31 44.26121 -0.71096 27379 ft 470 kts 26°
2026-04-21 13:31 44.29153 -0.69485 27741 ft 466 kts
2026-04-21 13:32 44.32316 -0.69105 28180 ft 462 kts 357°
2026-04-21 13:32 44.35531 -0.69089 28701 ft 462 kts 356°
2026-04-21 13:32 44.38738 -0.69104 29290 ft 460 kts 356°
2026-04-21 13:32 44.41930 -0.69117 29934 ft 457 kts 356°
2026-04-21 13:33 44.45103 -0.69115 30490 ft 455 kts 356°
2026-04-21 13:33 44.48264 -0.69097 30960 ft 454 kts 356°
2026-04-21 13:33 44.51429 -0.69067 31352 ft 455 kts 357°
2026-04-21 13:33 44.54597 -0.69029 31778 ft 456 kts 357°
2026-04-21 13:34 44.57723 -0.68986 32247 ft 455 kts 357°
2026-04-21 13:34 44.60883 -0.68940 32731 ft 453 kts 356°
2026-04-21 13:34 44.64035 -0.68894 33187 ft 453 kts 356°
2026-04-21 13:34 44.67189 -0.68848 33609 ft 453 kts 356°
2026-04-21 13:35 44.70341 -0.68803 34034 ft 453 kts 356°
2026-04-21 13:35 44.73485 -0.68758 34434 ft 452 kts 356°
2026-04-21 13:35 44.76624 -0.68714 34833 ft 451 kts 356°
2026-04-21 13:35 44.79755 -0.68669 35229 ft 449 kts 356°
2026-04-21 13:36 44.82881 -0.68625 35608 ft 449 kts 356°
2026-04-21 13:36 44.86004 -0.68581 35898 ft 450 kts 356°
2026-04-21 13:36 44.92274 -0.68496 35882 ft 454 kts 356°
2026-04-21 13:37 44.98540 -0.68403 35874 ft 446 kts 356°
2026-04-21 13:37 45.04748 -0.68314 35890 ft 446 kts 356°
2026-04-21 13:38 45.10954 -0.68227 35888 ft 446 kts 356°
2026-04-21 13:38 45.17121 -0.68139 35897 ft 446 kts 356°
2026-04-21 13:39 45.23332 -0.68051 35903 ft 446 kts 356°
2026-04-21 13:39 45.29543 -0.67962 35896 ft 447 kts 356°
2026-04-21 13:40 45.35758 -0.67872 35914 ft 447 kts 356°
2026-04-21 13:40 45.41933 -0.67783 35919 ft 447 kts 356°
2026-04-21 13:41 45.48150 -0.67694 35921 ft 447 kts 356°
2026-04-21 13:41 45.54371 -0.67603 35933 ft 447 kts 356°
2026-04-21 13:42 45.60589 -0.67513 35947 ft 447 kts 356°
2026-04-21 13:42 45.66762 -0.67423 35933 ft 446 kts 356°
2026-04-21 13:43 45.72971 -0.67333 35941 ft 446 kts 356°
2026-04-21 13:43 45.79175 -0.67242 35948 ft 446 kts 356°
2026-04-21 13:44 45.85370 -0.67151 35951 ft 445 kts 356°
2026-04-21 13:44 45.91561 -0.67061 35949 ft 445 kts 356°
2026-04-21 13:45 45.97705 -0.66970 35970 ft 444 kts 356°
2026-04-21 13:45 46.03882 -0.66879 35961 ft 444 kts 356°
2026-04-21 13:46 46.10060 -0.66788 35962 ft 444 kts 356°
2026-04-21 13:46 46.16232 -0.66697 35962 ft 443 kts 356°
2026-04-21 13:47 46.22357 -0.66606 35977 ft 443 kts 356°
2026-04-21 13:47 46.28528 -0.66514 35973 ft 443 kts 356°
2026-04-21 13:48 46.34698 -0.66422 35980 ft 443 kts 356°
2026-04-21 13:48 46.40863 -0.66330 35995 ft 443 kts 355°
2026-04-21 13:49 46.46991 -0.66755 35997 ft 439 kts 349°
2026-04-21 13:49 46.53007 -0.67842 35992 ft 438 kts 348°
2026-04-21 13:50 46.59057 -0.68964 36021 ft 439 kts 348°
2026-04-21 13:50 46.65122 -0.70026 36011 ft 439 kts 348°
2026-04-21 13:51 46.71189 -0.71055 36009 ft 439 kts 348°
2026-04-21 13:51 46.77205 -0.72069 36013 ft 438 kts 348°
2026-04-21 13:52 46.83258 -0.73092 36022 ft 438 kts 348°
2026-04-21 13:52 46.89304 -0.74118 36026 ft 437 kts 348°
2026-04-21 13:53 46.95345 -0.75146 36027 ft 437 kts 348°
2026-04-21 13:53 47.01348 -0.76170 36041 ft 437 kts 348°
2026-04-21 13:54 47.07390 -0.77203 36042 ft 437 kts 348°
2026-04-21 13:54 47.13426 -0.78237 36043 ft 437 kts 348°
2026-04-21 13:55 47.19464 -0.79274 36067 ft 437 kts 348°
2026-04-21 13:55 47.25495 -0.80312 36054 ft 436 kts 348°
2026-04-21 13:56 47.31475 -0.81343 36058 ft 435 kts 348°
2026-04-21 13:56 47.37487 -0.82383 36058 ft 435 kts 348°
2026-04-21 13:57 47.43491 -0.83424 36048 ft 434 kts 348°
2026-04-21 13:57 47.49489 -0.84466 36061 ft 434 kts 348°
2026-04-21 13:58 47.55458 -0.85483 36067 ft 435 kts 349°
2026-04-21 13:58 47.61508 -0.86245 36077 ft 437 kts 351°
2026-04-21 13:59 47.67576 -0.86929 36074 ft 438 kts 351°
2026-04-21 13:59 47.73646 -0.87638 36080 ft 438 kts 351°
2026-04-21 14:00 47.79720 -0.88373 36078 ft 438 kts 350°
2026-04-21 14:00 47.85746 -0.89112 36102 ft 437 kts 351°
2026-04-21 14:01 47.91805 -0.89859 36101 ft 436 kts 351°
2026-04-21 14:01 47.97849 -0.90605 36103 ft 435 kts 351°
2026-04-21 14:02 48.03873 -0.91350 36106 ft 434 kts 350°
2026-04-21 14:03 48.12850 -0.92463 36102 ft 433 kts 350°
2026-04-21 14:03 48.18839 -0.93209 36109 ft 432 kts 350°
2026-04-21 14:04 48.24822 -0.93955 36120 ft 431 kts 350°
2026-04-21 14:04 48.30759 -0.94698 36113 ft 431 kts 350°
2026-04-21 14:05 48.36742 -0.95447 36114 ft 431 kts 350°
2026-04-21 14:05 48.42728 -0.96200 36120 ft 432 kts 350°
2026-04-21 14:06 48.48726 -0.96955 36123 ft 433 kts 350°
2026-04-21 14:06 48.54689 -0.97708 36122 ft 433 kts 350°
2026-04-21 14:07 48.60701 -0.98468 36126 ft 434 kts 350°
2026-04-21 14:07 48.66715 -0.99230 36147 ft 434 kts 350°
2026-04-21 14:08 48.72730 -0.99994 36133 ft 434 kts 350°
2026-04-21 14:08 48.78746 -1.00760 36136 ft 434 kts 350°
2026-04-21 14:09 48.84714 -1.01522 36145 ft 433 kts 350°
2026-04-21 14:09 48.90709 -1.02289 36146 ft 432 kts 350°
2026-04-21 14:10 48.96703 -1.03058 36161 ft 432 kts 350°
2026-04-21 14:10 49.02692 -1.03829 36158 ft 432 kts 350°
2026-04-21 14:11 49.08639 -1.04596 36180 ft 432 kts 350°
2026-04-21 14:11 49.14627 -1.05370 36167 ft 432 kts 350°
2026-04-21 14:12 49.20611 -1.06145 36174 ft 432 kts 350°
2026-04-21 14:12 49.26590 -1.06922 36180 ft 431 kts 350°
2026-04-21 14:13 49.32567 -1.07700 36186 ft 431 kts 350°
2026-04-21 14:13 49.38507 -1.08476 36188 ft 431 kts 350°
2026-04-21 14:14 49.44484 -1.09258 36195 ft 431 kts 350°
2026-04-21 14:14 49.50454 -1.10041 36201 ft 431 kts 350°
2026-04-21 14:14 49.53460 -1.10437 36304 ft 436 kts 351°
2026-04-21 14:15 49.56485 -1.10836 36608 ft 437 kts 351°
2026-04-21 14:15 49.59526 -1.11068 36977 ft 439 kts 357°
2026-04-21 14:15 49.62582 -1.10736 37226 ft 443 kts
2026-04-21 14:16 49.68714 -1.09745 37199 ft 446 kts
2026-04-21 14:16 49.74830 -1.08826 37222 ft 438 kts
2026-04-21 14:17 49.80910 -1.07989 37219 ft 439 kts
2026-04-21 14:17 49.87000 -1.07168 37221 ft 439 kts
2026-04-21 14:18 49.93054 -1.06347 37227 ft 440 kts
2026-04-21 14:18 49.99155 -1.05516 37244 ft 441 kts
2026-04-21 14:19 50.05271 -1.04668 37232 ft 441 kts
2026-04-21 14:19 50.11394 -1.03806 37247 ft 442 kts
2026-04-21 14:20 50.17516 -1.02944 37239 ft 442 kts
2026-04-21 14:20 50.23597 -1.02087 37246 ft 442 kts
2026-04-21 14:21 50.29721 -1.01221 37244 ft 442 kts
2026-04-21 14:21 50.35797 -0.99634 37246 ft 448 kts 13°
2026-04-21 14:22 50.41706 -0.96464 37261 ft 449 kts 15°
2026-04-21 14:22 50.47569 -0.93277 37253 ft 449 kts 14°
2026-04-21 14:23 50.53478 -0.90144 37262 ft 448 kts 14°
2026-04-21 14:23 50.59388 -0.87026 37252 ft 448 kts 14°
2026-04-21 14:24 50.65288 -0.83903 37270 ft 447 kts 14°
2026-04-21 14:24 50.71138 -0.80802 37264 ft 446 kts 14°
2026-04-21 14:25 50.77022 -0.77674 37267 ft 446 kts 14°
2026-04-21 14:25 50.82898 -0.74544 37268 ft 445 kts 14°
2026-04-21 14:26 50.88772 -0.71412 37280 ft 445 kts 14°
2026-04-21 14:26 50.94639 -0.68276 37277 ft 445 kts 14°
2026-04-21 14:27 51.00467 -0.65152 37275 ft 445 kts 14°
2026-04-21 14:27 51.06320 -0.61915 37281 ft 447 kts 19°
2026-04-21 14:28 51.11949 -0.57614 37290 ft 450 kts 22°
2026-04-21 14:28 51.17537 -0.53141 37294 ft 449 kts 22°
2026-04-21 14:29 51.23158 -0.48792 37295 ft 449 kts 20°
2026-04-21 14:29 51.28941 -0.45408 37301 ft 445 kts 14°
2026-04-21 14:30 51.34734 -0.41815 37307 ft 449 kts 21°
2026-04-21 14:30 51.40350 -0.37401 37291 ft 450 kts 22°
2026-04-21 14:31 51.45962 -0.32972 37295 ft 449 kts 21°
2026-04-21 14:31 51.51596 -0.28633 37296 ft 449 kts 21°
2026-04-21 14:32 51.57231 -0.24322 37295 ft 449 kts 21°
2026-04-21 14:32 51.60048 -0.22162 37428 ft 449 kts 21°
2026-04-21 14:32 51.62825 -0.20028 37427 ft 449 kts 21°
2026-04-21 14:33 51.68454 -0.15692 37428 ft 448 kts 21°
2026-04-21 14:33 51.73881 -0.10705 37417 ft 455 kts 36°
2026-04-21 14:34 51.78076 -0.02953 37390 ft 466 kts 54°
2026-04-21 14:34 51.80830 0.04533 37323 ft 467 kts 56°
2026-04-21 14:35 51.84627 0.15066 37319 ft 466 kts 56°
2026-04-21 14:35 51.87931 0.24069 37320 ft 465 kts 56°
2026-04-21 14:36 51.91246 0.33048 37319 ft 464 kts 55°
2026-04-21 14:36 51.93993 0.40506 37321 ft 463 kts 56°
2026-04-21 14:37 51.97286 0.49484 37338 ft 463 kts 56°
2026-04-21 14:37 52.01103 0.59933 37322 ft 463 kts 56°
2026-04-21 14:38 52.03847 0.67467 37326 ft 463 kts 56°
2026-04-21 14:38 52.07099 0.76409 37334 ft 462 kts 56°
2026-04-21 14:39 52.10363 0.85415 37335 ft 462 kts 56°
2026-04-21 14:39 52.13620 0.94435 37347 ft 462 kts 56°
2026-04-21 14:40 52.16869 1.03468 37357 ft 462 kts 57°
2026-04-21 14:40 52.20090 1.12452 37348 ft 462 kts 57°
2026-04-21 14:41 52.23325 1.21511 37351 ft 462 kts 57°
2026-04-21 14:41 52.26554 1.30583 37351 ft 462 kts 57°
2026-04-21 14:42 52.29773 1.39660 37371 ft 462 kts 57°
2026-04-21 14:42 52.32980 1.48674 37383 ft 461 kts 54°
2026-04-21 14:43 52.37053 1.56616 37388 ft 455 kts 42°
2026-04-21 14:43 52.41519 1.63948 37377 ft 454 kts 42°
2026-04-21 14:44 52.45948 1.71332 37370 ft 454 kts 43°
2026-04-21 14:44 52.50337 1.78777 37378 ft 454 kts 43°
2026-04-21 14:45 52.54685 1.86186 37375 ft 453 kts 43°
2026-04-21 14:45 52.59059 1.93648 37383 ft 453 kts 43°
2026-04-21 14:46 52.63432 2.01112 37399 ft 453 kts 43°
2026-04-21 14:46 52.67797 2.08581 37384 ft 452 kts 43°
2026-04-21 14:47 52.72122 2.16011 37384 ft 452 kts 43°
2026-04-21 14:47 52.76467 2.23496 37394 ft 451 kts 44°
2026-04-21 14:48 52.80797 2.30981 37388 ft 450 kts 44°
2026-04-21 14:48 52.85115 2.38468 37394 ft 449 kts 44°
2026-04-21 14:49 52.89390 2.45903 37387 ft 448 kts 44°
2026-04-21 14:49 52.93685 2.53393 37416 ft 448 kts 44°
2026-04-21 14:50 52.98061 2.60721 37391 ft 445 kts 37°
2026-04-21 14:50 53.03292 2.66086 37401 ft 442 kts 25°
2026-04-21 14:51 53.08790 2.70491 37403 ft 442 kts 25°
2026-04-21 14:51 53.14311 2.74990 37405 ft 442 kts 25°
2026-04-21 14:52 53.19817 2.79565 37409 ft 442 kts 25°
2026-04-21 14:52 53.25296 2.84251 37395 ft 443 kts 32°
2026-04-21 14:52 53.27624 2.87624 37411 ft 446 kts 48°
2026-04-21 14:53 53.29382 2.91899 37396 ft 449 kts 62°
2026-04-21 14:53 53.31315 3.01793 37411 ft 453 kts 73°
2026-04-21 14:54 53.32936 3.11987 37411 ft 454 kts 73°
2026-04-21 14:54 53.34615 3.22168 37396 ft 454 kts 72°
2026-04-21 14:55 53.36327 3.32320 37395 ft 453 kts 72°
2026-04-21 14:55 53.38020 3.42390 37399 ft 452 kts 72°
2026-04-21 14:56 53.39961 3.52352 37395 ft 448 kts 60°
2026-04-21 14:56 53.41690 3.56656 37413 ft 444 kts 49°
2026-04-21 14:56 53.43880 3.60283 37400 ft 443 kts 36°
2026-04-21 14:57 53.48991 3.65996 37413 ft 441 kts 32°
2026-04-21 14:57 53.54100 3.71562 37411 ft 441 kts 32°
2026-04-21 14:58 53.59220 3.77229 37401 ft 440 kts 33°
2026-04-21 14:58 53.64319 3.82941 37405 ft 440 kts 33°
2026-04-21 14:59 53.69410 3.88678 37403 ft 440 kts 33°
2026-04-21 14:59 53.74464 3.94392 37417 ft 441 kts 33°
2026-04-21 15:00 53.79562 4.00170 37420 ft 442 kts 33°
2026-04-21 15:00 53.84667 4.05974 37424 ft 442 kts 34°
2026-04-21 15:01 53.89778 4.11800 37430 ft 443 kts 34°
2026-04-21 15:01 53.94896 4.17653 37419 ft 444 kts 34°
2026-04-21 15:02 53.99984 4.23489 37428 ft 445 kts 34°
2026-04-21 15:02 54.05110 4.29385 37423 ft 445 kts 34°
2026-04-21 15:03 54.10239 4.35304 37424 ft 446 kts 34°
2026-04-21 15:03 54.15366 4.41238 37424 ft 446 kts 34°
2026-04-21 15:04 54.20458 4.47150 37424 ft 446 kts 35°
2026-04-21 15:04 54.25581 4.53115 37424 ft 445 kts 35°
2026-04-21 15:05 54.30701 4.59096 37427 ft 445 kts 35°
2026-04-21 15:05 54.38371 4.68089 37432 ft 445 kts 35°
2026-04-21 15:06 54.43443 4.74059 37424 ft 445 kts 35°
2026-04-21 15:06 54.48547 4.80085 37433 ft 445 kts 35°
2026-04-21 15:07 54.53649 4.86127 37435 ft 445 kts 35°
2026-04-21 15:07 54.58746 4.92183 37431 ft 445 kts 36°
2026-04-21 15:08 54.63846 4.98261 37444 ft 446 kts 36°
2026-04-21 15:08 54.68916 5.04322 37429 ft 446 kts 36°
2026-04-21 15:09 54.74019 5.10441 37432 ft 446 kts 36°
2026-04-21 15:09 54.79109 5.16564 37440 ft 445 kts 36°
2026-04-21 15:10 54.84191 5.22695 37441 ft 445 kts 36°
2026-04-21 15:10 54.89230 5.28796 37441 ft 445 kts 36°
2026-04-21 15:11 54.94298 5.34948 37442 ft 444 kts 36°
2026-04-21 15:11 54.99400 5.41015 37440 ft 445 kts 31°
2026-04-21 15:12 55.05119 5.45162 37451 ft 447 kts 20°
2026-04-21 15:12 55.11030 5.48560 37450 ft 447 kts 20°
2026-04-21 15:13 55.16899 5.51960 37435 ft 447 kts 20°
2026-04-21 15:13 55.22798 5.55449 37441 ft 447 kts 20°
2026-04-21 15:14 55.28692 5.58977 37446 ft 448 kts 20°
2026-04-21 15:14 55.34585 5.62522 37449 ft 448 kts 20°
2026-04-21 15:15 55.40443 5.66056 37440 ft 448 kts 20°
2026-04-21 15:15 55.46344 5.69625 37445 ft 448 kts 20°
2026-04-21 15:16 55.52246 5.73206 37453 ft 449 kts 20°
2026-04-21 15:16 55.58154 5.76801 37456 ft 449 kts 21°
2026-04-21 15:17 55.64065 5.80410 37451 ft 449 kts 21°
2026-04-21 15:17 55.69934 5.84005 37446 ft 449 kts 21°
2026-04-21 15:18 55.75844 5.87637 37460 ft 450 kts 21°
2026-04-21 15:18 55.81761 5.91284 37455 ft 450 kts 21°
2026-04-21 15:19 55.87678 5.94943 37463 ft 450 kts 21°
2026-04-21 15:19 55.93559 5.98592 37462 ft 451 kts 21°
2026-04-21 15:20 55.99485 6.02281 37463 ft 451 kts 21°
2026-04-21 15:20 56.05406 6.05979 37458 ft 451 kts 21°
2026-04-21 15:21 56.11328 6.09688 37453 ft 451 kts 21°
2026-04-21 15:21 56.17206 6.13383 37445 ft 451 kts 21°
2026-04-21 15:22 56.23123 6.17114 37463 ft 451 kts 21°
2026-04-21 15:22 56.29040 6.20858 37463 ft 451 kts 21°
2026-04-21 15:23 56.34958 6.24614 37450 ft 451 kts 21°
2026-04-21 15:23 56.40877 6.28384 37460 ft 451 kts 21°
2026-04-21 15:24 56.46755 6.32140 37459 ft 451 kts 21°
2026-04-21 15:24 56.52675 6.35935 37462 ft 452 kts 21°
2026-04-21 15:25 56.58601 6.39748 37463 ft 452 kts 21°
2026-04-21 15:25 56.64531 6.43575 37463 ft 452 kts 21°
2026-04-21 15:26 56.70424 6.47391 37460 ft 453 kts 21°
2026-04-21 15:26 56.76361 6.51249 37468 ft 453 kts 21°
2026-04-21 15:27 56.82300 6.55121 37465 ft 453 kts 21°
2026-04-21 15:27 56.88242 6.59006 37460 ft 454 kts 21°
2026-04-21 15:28 56.93920 6.63758 37467 ft 451 kts 30°
2026-04-21 15:28 56.99436 6.69258 37466 ft 452 kts 29°
2026-04-21 15:29 57.04917 6.74895 37467 ft 451 kts 32°
2026-04-21 15:29 57.10300 6.80823 37466 ft 451 kts 32°
2026-04-21 15:30 57.15655 6.86714 37465 ft 451 kts 32°
2026-04-21 15:30 57.21054 6.92611 37452 ft 451 kts 32°
2026-04-21 15:31 57.26456 6.98510 37462 ft 451 kts 32°
2026-04-21 15:31 57.31858 7.04431 37461 ft 451 kts 32°
2026-04-21 15:32 57.37217 7.10327 37456 ft 451 kts 32°
2026-04-21 15:32 57.42613 7.16285 37460 ft 451 kts 32°
2026-04-21 15:33 57.48008 7.22259 37462 ft 451 kts 32°
2026-04-21 15:33 57.53391 7.28253 37454 ft 451 kts 32°
2026-04-21 15:34 57.58733 7.34229 37453 ft 451 kts 32°
2026-04-21 15:34 57.64103 7.40258 37453 ft 450 kts 32°
2026-04-21 15:35 57.69469 7.46303 37452 ft 450 kts 32°
2026-04-21 15:35 57.74825 7.52356 37449 ft 450 kts 32°
2026-04-21 15:36 57.80137 7.58381 37448 ft 449 kts 32°
2026-04-21 15:36 57.85482 7.64465 37446 ft 449 kts 32°
2026-04-21 15:37 57.90829 7.70573 37445 ft 450 kts 32°
2026-04-21 15:37 57.96172 7.76698 37436 ft 450 kts 32°
2026-04-21 15:38 58.01514 7.82843 37435 ft 449 kts 32°
2026-04-21 15:38 58.06813 7.88959 37337 ft 451 kts 33°
2026-04-21 15:39 58.09467 7.92157 36745 ft 452 kts 36°
2026-04-21 15:39 58.11985 7.95635 36193 ft 447 kts 39°
2026-04-21 15:39 58.14440 7.99232 35535 ft 446 kts 40°
2026-04-21 15:39 58.16872 8.02864 34907 ft 445 kts 40°
2026-04-21 15:40 58.19301 8.06494 34188 ft 445 kts 39°
2026-04-21 15:40 58.21734 8.10106 33446 ft 444 kts 39°
2026-04-21 15:40 58.24136 8.13650 32764 ft 442 kts 39°
2026-04-21 15:40 58.26559 8.17210 32054 ft 439 kts 39°
2026-04-21 15:41 58.28966 8.20742 31356 ft 438 kts 39°
2026-04-21 15:41 58.31407 8.24325 30699 ft 450 kts 39°
2026-04-21 15:41 58.33909 8.28005 30137 ft 457 kts 39°
2026-04-21 15:41 58.36400 8.31672 29541 ft 448 kts 39°
2026-04-21 15:42 58.38840 8.35269 29012 ft 439 kts 39°
2026-04-21 15:42 58.41231 8.38801 28488 ft 431 kts 39°
2026-04-21 15:42 58.43580 8.42279 27969 ft 424 kts 39°
2026-04-21 15:42 58.45887 8.45701 27446 ft 417 kts 39°
2026-04-21 15:43 58.48151 8.49069 26962 ft 421 kts 39°
2026-04-21 15:43 58.50496 8.52566 26463 ft 432 kts 39°
2026-04-21 15:43 58.52866 8.56104 25904 ft 430 kts 39°
2026-04-21 15:43 58.55204 8.59596 25381 ft 422 kts 39°
2026-04-21 15:44 58.57500 8.63029 24867 ft 416 kts 40°
2026-04-21 15:44 58.59763 8.66422 24369 ft 410 kts 40°
2026-04-21 15:44 58.61998 8.69777 23846 ft 406 kts 40°
2026-04-21 15:44 58.64179 8.73057 23291 ft 401 kts 40°
2026-04-21 15:45 58.66372 8.76364 22766 ft 403 kts 40°
2026-04-21 15:45 58.68595 8.79721 22266 ft 408 kts 40°
2026-04-21 15:45 58.70821 8.83086 21748 ft 404 kts 40°
2026-04-21 15:45 58.73007 8.86395 21264 ft 396 kts 39°
2026-04-21 15:46 58.75153 8.89649 20765 ft 389 kts 39°
2026-04-21 15:46 58.77258 8.92847 20287 ft 383 kts 39°
2026-04-21 15:46 58.79336 8.96010 19815 ft 379 kts 39°
2026-04-21 15:46 58.81400 8.99154 19349 ft 376 kts 39°
2026-04-21 15:47 58.83450 9.02283 18885 ft 379 kts 39°
2026-04-21 15:47 58.85502 9.05422 18370 ft 383 kts 39°
2026-04-21 15:47 58.87580 9.08603 17835 ft 379 kts 39°
2026-04-21 15:47 58.89625 9.11736 17329 ft 371 kts 39°
2026-04-21 15:48 58.91630 9.14813 16867 ft 364 kts 39°
2026-04-21 15:48 58.93599 9.17839 16401 ft 358 kts 39°
2026-04-21 15:48 58.95536 9.20821 15945 ft 354 kts 39°
2026-04-21 15:48 58.97460 9.23790 15501 ft 353 kts 39°
2026-04-21 15:49 58.99375 9.26747 15050 ft 353 kts 39°
2026-04-21 15:49 59.01307 9.29737 14602 ft 356 kts 38°
2026-04-21 15:49 59.03236 9.32725 14135 ft 353 kts 38°
2026-04-21 15:49 59.05062 9.35559 13643 ft 347 kts 38°
2026-04-21 15:50 59.06929 9.38458 13162 ft 341 kts 38°
2026-04-21 15:50 59.08762 9.41309 12724 ft 334 kts 38°
2026-04-21 15:50 59.10561 9.44112 12280 ft 330 kts 38°
2026-04-21 15:50 59.12355 9.46908 11829 ft 331 kts 38°
2026-04-21 15:51 59.14174 9.49750 11106 ft 337 kts 38°
2026-04-21 15:51 59.15978 9.52572 10831 ft 326 kts 38°
2026-04-21 15:51 59.17611 9.55508 10624 ft 314 kts 52°
2026-04-21 15:51 59.18557 9.59236 10501 ft 302 kts 72°
2026-04-21 15:52 59.18844 9.63210 10378 ft 292 kts 87°
2026-04-21 15:52 59.18844 9.67055 10257 ft 283 kts 89°
2026-04-21 15:52 59.18811 9.70826 10114 ft 273 kts 89°
2026-04-21 15:52 59.18779 9.74465 10002 ft 264 kts 89°
2026-04-21 15:53 59.18754 9.78005 9781 ft 259 kts 89°
2026-04-21 15:53 59.18733 9.81491 9535 ft 257 kts 89°
2026-04-21 15:53 59.18717 9.85000 9280 ft 261 kts 89°
2026-04-21 15:53 59.18702 9.88574 9018 ft 265 kts 89°
2026-04-21 15:54 59.18686 9.92153 8723 ft 263 kts 89°
2026-04-21 15:54 59.18668 9.95657 8463 ft 261 kts 89°
2026-04-21 15:54 59.18615 9.99151 8309 ft 255 kts 96°
2026-04-21 15:54 59.17937 10.02275 8185 ft 252 kts 127°
2026-04-21 15:55 59.16576 10.04380 7955 ft 253 kts 153°
2026-04-21 15:55 59.14879 10.05202 7730 ft 253 kts 176°
2026-04-21 15:55 59.13119 10.05247 7493 ft 252 kts 179°
2026-04-21 15:55 59.11364 10.05221 7242 ft 252 kts 179°
2026-04-21 15:56 59.09613 10.05194 6996 ft 252 kts 179°
2026-04-21 15:56 59.07862 10.05176 6746 ft 251 kts 179°
2026-04-21 15:56 59.06144 10.05167 6542 ft 249 kts 179°
2026-04-21 15:56 59.04419 10.05165 6334 ft 249 kts 179°
2026-04-21 15:57 59.02661 10.05167 6096 ft 256 kts 179°
2026-04-21 15:57 59.00874 10.05170 5842 ft 256 kts 179°
2026-04-21 15:57 58.99111 10.05173 5708 ft 249 kts 179°
2026-04-21 15:57 58.97445 10.05733 5563 ft 240 kts 151°
2026-04-21 15:58 58.96234 10.07785 5411 ft 230 kts 120°
2026-04-21 15:58 58.95638 10.10582 5228 ft 222 kts 97°
2026-04-21 15:58 58.95545 10.13502 5070 ft 224 kts 87°
2026-04-21 15:58 58.95573 10.16534 4835 ft 225 kts 86°
2026-04-21 15:59 58.95605 10.19526 4625 ft 218 kts 86°
2026-04-21 15:59 58.95638 10.22408 4419 ft 208 kts 84°
2026-04-21 15:59 58.96118 10.24820 4394 ft 187 kts 43°
2026-04-21 15:59 58.97277 10.25764 4289 ft 184 kts
2026-04-21 16:00 58.98562 10.26012 4042 ft 186 kts
2026-04-21 16:00 58.99840 10.26303 3801 ft 184 kts
2026-04-21 16:00 59.01102 10.26319 3552 ft 179 kts
2026-04-21 16:00 59.02336 10.26287 3306 ft 175 kts 360°
2026-04-21 16:01 59.03523 10.26254 3076 ft 171 kts 360°
2026-04-21 16:01 59.04702 10.26222 2845 ft 168 kts 359°
2026-04-21 16:01 59.05858 10.26193 2620 ft 164 kts 359°
2026-04-21 16:01 59.06995 10.26162 2395 ft 163 kts 359°
2026-04-21 16:02 59.08134 10.26136 2166 ft 163 kts 359°
2026-04-21 16:02 59.09262 10.26106 1923 ft 163 kts 359°
2026-04-21 16:02 59.10404 10.26076 1712 ft 162 kts 359°
2026-04-21 16:02 59.11506 10.26049 1481 ft 155 kts 359°
2026-04-21 16:03 59.12572 10.26021 1287 ft 154 kts 359°
2026-04-21 16:03 59.13614 10.25994 1082 ft 150 kts 359°
2026-04-21 16:03 59.14636 10.25967 896 ft 144 kts 359°
2026-04-21 16:03 59.15629 10.25951 717 ft 143 kts 359°
2026-04-21 16:04 59.16610 10.25919 503 ft 139 kts 359°
2026-04-21 16:04 59.17583 10.25884 315 ft 141 kts 360°
2026-04-21 16:04 59.18494 10.25866 278 ft 110 kts 359°
2026-04-21 16:04 59.18996 10.25857 276 ft 23 kts
2026-04-21 16:05 59.19057 10.25973 282 ft 13 kts 88°
2026-04-21 16:05 59.19060 10.26151 277 ft 13 kts 89°
2026-04-21 16:05 59.18995 10.26231 277 ft 13 kts 178°
2026-04-21 16:05 59.18903 10.26233 280 ft 14 kts 180°
2026-04-21 16:06 59.18805 10.26233 277 ft 14 kts 180°
2026-04-21 16:06 59.18703 10.26235 277 ft 15 kts 179°
2026-04-21 16:06 59.18597 10.26239 277 ft 16 kts 179°
2026-04-21 16:06 59.18486 10.26242 277 ft 16 kts 179°
2026-04-21 16:07 59.18370 10.26245 277 ft 17 kts 179°
2026-04-21 16:07 59.18279 10.26178 277 ft 15 kts 259°
2026-04-21 16:07 59.18275 10.25976 277 ft 16 kts 270°
2026-04-21 16:07 59.18222 10.25793 277 ft 16 kts 227°
2026-04-21 16:08 59.18117 10.25572 277 ft 5 kts 224°
2026-04-21 16:08 59.18099 10.25546 279 ft 4 kts 207°
2026-04-21 16:08 59.18079 10.25534 277 ft 0 kts 199°
2026-04-21 16:09 59.18071 10.25515 280 ft 6 kts 240°
2026-04-21 16:09 59.18065 10.25391 277 ft 8 kts 269°
2026-04-21 16:09 59.18045 10.25332 277 ft 5 kts 203°
2026-04-21 16:10 59.18025 10.25328 277 ft 1 kts 180°
2026-04-21 16:10 59.18012 10.25328 280 ft 2 kts 180°
2026-04-21 16:10 59.18004 10.25328 277 ft 0 kts 180°